Showing default

TBA - TO BE ASSIGNED, 64477

Orbit data source: Space-Track

TBA - TO BE ASSIGNED named objects are likely recently launched satellites that are being tracked but not necessarily identified.

Loading next visibility...
Identifier
64477, 2025-133F
Orbit
LEO
Last TLE update
12 hours ago
Origin
Manufacturer
SpaceX/Seattle
Mission
Operational spacecraft
Bus & Motor
STARLINK V2MO, Unknown motor
Mass
575 kg wet, ~530 kg dry
Launch date (UTC)
2025-06-23 (1 week ago)
Launch vehicle
FALCON 9
Launch site
Air Force Eastern Test Range (AFETR)
Object type
Payload
Rocket body
Debris
Shape & HBR
Unknown
Radar Cross Section
RCS unknown

Expand to show TLE details & history

TLE from 12 hours ago
0 STARLINK-34375
1 64477U 25133F   25181.91668981 -.01071477  00000-0 -43743-2 0  9999
2 64477  53.1554 219.2456 0000822  79.3656 106.6952 15.87894652  2455
Epoch: 2025-06-30T22:00Z
TLE epoch observation values (Epoch: 2025-06-30T22:00:01.999Z)
Latitude
-4.96661°
Longitude
153.73004°
Altitude
310.044 km
Speed
7.723 km/s
True Right ascension
02h 51m 49s
True Declination
-4° 56' 06"
Sunlit
Object was in daylight at epoch
Visualization orbit readout
Latitude
28.75063°
Longitude
123.37827°
Altitude
312.697 km
Speed
7.725 km/s
Apparent Right ascension
04h 27m 15s
Apparent Declination
-10° 45' 21"
Sunlit
Object is in daylight
Visualization observer readout
Local Sidereal Time
21:32:55
Azimuth
89.705° E
Elevation
-17.26°
Doppler factor
1
Orbital elements
Apogee altitude
309 km
Perigee altitude
307.9 km
Semi-major axis
6,686.587 km
Eccentricity
0.00008
Inclination
53.1554°
RAAN
219.2456°
Arg. of periapsis
79.3656°
True anomaly
Unknown
Mean anomaly
106.6952°
Eccentric anomaly
Unknown
Mean motion
3.96951 °/min
Orbital period
90.69 mins
BSTAR
-0.0043743
Loading maneuver chart data...
Loading SW <> Apogee altitude chart data...

TBA - TO BE ASSIGNED Visibility forecast

Observer location: undefined°, undefined°

Span
Click to sort rows by Start time (UTC) header in descending order
Start Az.
Max El. time (UTC)
Max El. Az.
Max El.
End time (UTC)
End Az.
4 mins2025-07-02 05:10:33.741Z240.719° WSW2025-07-02 05:11:33.741Z263.617° W39.997°2025-07-02 05:14:33.741Z46.01° ENE
|